[[{"header":{"parameterUnit":"m.s-1","parameterCategory":2,"la1":30.2991,"la2":30.254,"lo1":-89.0895,"lo2":-89.0444,"dy":0.0017,"dx":0.0017,"nx":28,"ny":28,"refTime":"2024-10-07T09:00:00:Z","depth":"0","parameterNumber":2,"parameterNumberName":"U-component_of_CURRENTS"},"data":[0,0,0,0,0,0,0,0,0,0,0,0,0,0,0,0,0,0,0,0,0,0,0,0,0,0,0,0,0,0,0,0,0,0,0,0,0,0,0,0,0,0,0,0,0,0,0,0,0,0,0,0,0,0,0,0,0,0,-0.2499,-0.25,0,-0.2513,-0.2513,-0.2513,-0.2469,-0.2468,-0.2467,-0.2466,-0.2425,-0.2425,-0.2425,0,0,0,0,0,0,0,0,0,0,0,0,0,-0.2434,-0.2436,-0.2499,-0.25,-0.25,-0.2513,-0.2513,-0.2513,-0.2469,-0.2468,-0.2467,-0.2465,-0.2425,-0.2425,-0.2425,0,0,0,0,0,0,0,0,0,0,0,0,0,-0.2454,-0.2436,-0.2499,-0.2482,-0.248,-0.2513,-0.2513,-0.2513,-0.247,-0.2468,-0.2466,-0.2465,-0.2425,-0.2425,-0.2425,-0.2457,0,0,-0.2424,-0.2424,0,0,0,0,0,0,0,0,-0.2453,-0.2457,-0.2484,-0.2483,-0.2482,-0.249,-0.2475,-0.2492,-0.247,-0.2471,-0.2466,-0.2464,-0.2444,-0.2443,-0.2446,-0.2455,-0.2453,-0.2424,-0.2424,-0.2424,-0.2424,0,0,0,0,0,0,0,-0.2452,-0.2456,-0.2502,-0.2484,-0.2483,-0.2473,-0.2473,-0.2478,-0.2464,-0.2471,-0.2468,-0.2474,-0.2443,-0.2446,-0.2445,-0.2453,-0.2424,-0.2424,-0.2424,-0.2424,-0.2467,-0.2468,0,0,0,0,0,0,-0.2457,-0.2455,-0.2502,-0.2503,-0.2466,-0.2475,-0.2476,-0.2487,-0.2465,-0.2461,-0.2476,-0.2472,-0.2447,-0.2445,-0.2443,-0.2465,-0.2424,-0.2424,-0.2424,-0.2466,-0.2468,-0.2469,0,0,0,0,0,0,-0.2456,-0.2462,-0.2501,-0.248,-0.2485,-0.2479,-0.2491,-0.2488,-0.2486,-0.247,-0.2464,-0.2475,-0.2446,-0.2443,-0.2446,-0.2463,-0.2424,-0.2424,-0.2465,-0.2467,-0.2468,-0.2518,0,0,0,0,0,0,-0.2454,-0.2461,-0.2468,-0.2481,-0.2486,-0.2523,-0.2492,-0.2489,-0.2493,-0.2489,-0.2468,-0.2463,-0.2444,-0.2446,-0.2446,-0.2462,-0.2424,-0.2463,-0.2466,-0.2468,-0.2515,-0.2521,-0.2527,0,0,0,0,0,-0.2452,-0.247,-0.2469,-0.2474,-0.2497,-0.2524,-0.2526,-0.2514,-0.2495,-0.2503,-0.2486,-0.2463,-0.246,-0.2448,-0.2447,-0.2463,-0.2462,-0.2465,-0.2468,-0.2512,-0.252,-0.2526,0,0,0,0,0,0,-0.2445,-0.2468,-0.2466,-0.249,-0.2507,-0.2518,-0.2524,-0.2519,-0.2515,-0.2504,-0.248,-0.2475,-0.2484,-0.2472,-0.2459,-0.2483,-0.2457,-0.246,-0.2492,-0.2499,-0.2505,-0.2503,-0.2424,0,0,0,0,0,-0.245,-0.2464,-0.2489,-0.2505,-0.2516,-0.2521,-0.2529,-0.2526,-0.2527,-0.2522,-0.2509,-0.2498,-0.25,-0.2496,-0.2494,-0.2511,-0.2493,-0.2521,-0.2527,-0.2532,-0.2531,-0.2529,-0.2535,-0.2478,-0.2478,-0.2478,0,0,-0.245,-0.2465,-0.2472,-0.2504,-0.2512,-0.2538,-0.2521,-0.2538,-0.2554,-0.252,-0.2529,-0.252,-0.251,-0.2524,-0.2527,-0.2512,-0.254,-0.2536,-0.254,-0.2536,-0.2533,-0.2538,-0.2543,-0.248,-0.2479,-0.2479,0,0,-0.2462,-0.2475,-0.2492,-0.2513,-0.2537,-0.2548,-0.2556,-0.2573,-0.2572,-0.259,-0.2568,-0.2571,-0.2571,-0.2568,-0.2566,-0.2608,-0.2574,-0.2607,-0.2633,-0.2631,-0.2636,-0.2639,-0.2624,-0.2626,-0.2607,-0.2608,-0.2608,0,-0.2459,-0.2486,-0.2501,-0.2529,-0.2545,-0.2555,-0.2581,-0.2595,-0.2607,-0.2613,-0.2596,-0.2604,-0.2594,-0.2613,-0.2623,-0.2622,-0.2606,-0.2605,-0.2638,-0.2641,-0.2644,-0.2628,-0.2629,-0.261,-0.261,-0.261,-0.2609,0,-0.2485,-0.2509,-0.2523,-0.2559,-0.2583,-0.2606,-0.2635,-0.2653,-0.2652,-0.266,-0.2676,-0.2668,-0.2667,-0.2672,-0.2657,-0.2678,-0.2656,-0.2647,-0.2617,-0.2653,-0.2633,-0.2634,-0.2614,-0.2613,-0.2612,-0.2612,0,0,-0.2465,-0.2528,-0.253,-0.255,-0.2599,-0.2618,-0.2659,-0.2693,-0.2709,-0.2721,-0.2736,-0.2746,-0.2732,-0.273,-0.2717,-0.2718,-0.2725,-0.2689,-0.2688,-0.2669,-0.2709,-0.266,-0.2655,-0.2717,-0.2718,-0.2718,-0.2686,0,-0.2474,-0.2522,-0.2556,-0.2598,-0.2624,-0.2658,-0.2695,-0.2727,-0.2744,-0.2763,-0.2765,-0.2772,-0.2758,-0.2752,-0.2755,-0.2732,-0.2728,-0.2734,-0.2681,-0.2679,-0.2628,-0.2655,-0.2565,-0.2526,-0.2686,-0.2686,-0.2686,0,-0.248,-0.2511,-0.2553,-0.2613,-0.2628,-0.2656,-0.2704,-0.2738,-0.278,-0.2793,-0.2807,-0.2804,-0.2812,-0.279,-0.2774,-0.2775,-0.2745,-0.2726,-0.2725,-0.2661,-0.2632,-0.2517,-0.252,-0.2504,-0.2687,-0.2687,-0.2687,0,-0.2436,-0.2506,-0.2531,-0.2553,-0.2627,-0.2648,-0.2682,-0.2735,-0.2763,-0.2801,-0.2817,-0.283,-0.2827,-0.2806,-0.2776,-0.2769,-0.275,-0.2735,-0.2666,-0.2662,-0.2564,-0.2551,-0.2539,-0.2722,-0.2722,-0.2722,-0.2722,0,-0.2422,-0.244,-0.251,-0.2522,-0.2552,-0.2617,-0.265,-0.2691,-0.2749,-0.2774,-0.2815,-0.2829,-0.2829,-0.2822,-0.2786,-0.2728,-0.2758,-0.2671,-0.2653,-0.2579,-0.2568,-0.2533,-0.254,-0.2721,-0.2721,-0.2722,-0.2722,0,-0.2355,-0.2407,-0.2436,-0.2508,-0.2528,-0.2541,-0.2619,-0.2644,-0.2715,-0.2748,-0.276,-0.2822,-0.2812,-0.2808,-0.2775,-0.2733,-0.2637,-0.266,-0.2568,-0.254,-0.2444,-0.2458,-0.2387,-0.2319,-0.2566,-0.2565,-0.2563,0,-0.232,-0.2328,-0.2395,-0.2405,-0.243,-0.2471,-0.2499,-0.2596,-0.2628,-0.2732,-0.2735,-0.277,-0.2769,-0.2726,-0.267,-0.2606,-0.258,-0.2478,-0.2451,-0.2429,-0.2432,-0.2419,-0.2365,-0.234,-0.2337,-0.2335,-0.2333,0,-0.2238,-0.2261,-0.2281,-0.2304,-0.2329,-0.2364,-0.2414,-0.2444,-0.2555,-0.2598,-0.2644,-0.2662,-0.2665,-0.258,-0.2529,-0.2467,-0.2409,-0.2426,-0.2427,-0.2275,-0.2235,-0.2163,-0.2373,-0.2312,-0.2314,-0.2316,-0.2317,-0.2318,-0.2155,-0.2146,-0.2169,-0.2175,-0.2207,-0.2221,-0.2208,-0.2288,-0.2323,-0.2371,-0.248,-0.2497,-0.2488,-0.2406,-0.2354,-0.224,-0.2261,-0.2161,-0.2185,-0.2178,-0.2097,-0.2259,-0.2168,-0.2169,-0.217,-0.2171,-0.2172,0,-0.2032,-0.2032,-0.2039,-0.2041,-0.2017,-0.2079,-0.2114,-0.2084,-0.2077,-0.2196,-0.2225,-0.2293,-0.2212,-0.2215,-0.213,-0.2034,-0.1966,-0.1977,-0.1944,-0.1903,-0.206,-0.2036,-0.1884,-0.1884,-0.1884,-0.1884,-0.1884,-0.1884,-0.1968,-0.192,-0.1922,-0.1833,-0.1834,-0.1756,-0.1742,-0.1732,-0.178,-0.1834,-0.1943,-0.2077,-0.2094,-0.2173,-0.2044,-0.1941,-0.1868,-0.1802,-0.1817,-0.1954,-0.1974,-0.1992,-0.1972,-0.1809,-0.1809,-0.1586,-0.1584,-0.1583]},{"header":{"parameterUnit":"m.s-1","parameterCategory":2,"la1":30.2991,"la2":30.254,"lo1":-89.0895,"lo2":-89.0444,"dy":0.0017,"dx":0.0017,"nx":28,"ny":28,"refTime":"2024-10-07T09:00:00:Z","depth":"0","parameterNumber":3,"parameterNumberName":"V-component_of_CURRENTS"},"data":[0,0,0,0,0,0,0,0,0,0,0,0,0,0,0,0,0,0,0,0,0,0,0,0,0,0,0,0,0,0,0,0,0,0,0,0,0,0,0,0,0,0,0,0,0,0,0,0,0,0,0,0,0,0,0,0,0,0,-0.0398,-0.0397,0,-0.0316,-0.0315,-0.0314,-0.026,-0.026,-0.026,-0.0259,-0.0155,-0.0152,-0.015,0,0,0,0,0,0,0,0,0,0,0,0,0,-0.0459,-0.0459,-0.0398,-0.0397,-0.0396,-0.0316,-0.0315,-0.0314,-0.026,-0.026,-0.0259,-0.0259,-0.0155,-0.0152,-0.0149,0,0,0,0,0,0,0,0,0,0,0,0,0,-0.041,-0.0459,-0.0398,-0.036,-0.0356,-0.0316,-0.0315,-0.0314,-0.026,-0.026,-0.0259,-0.0259,-0.0156,-0.0153,-0.0149,-0.0135,0,0,-0.0138,-0.0136,0,0,0,0,0,0,0,0,-0.0413,-0.0408,-0.0366,-0.0362,-0.0358,-0.0298,-0.0298,-0.0253,-0.026,-0.0296,-0.0259,-0.0259,-0.0201,-0.0194,-0.0179,-0.013,-0.0126,-0.0137,-0.0135,-0.0133,-0.0132,0,0,0,0,0,0,0,-0.0417,-0.0411,-0.0365,-0.0366,-0.036,-0.033,-0.0323,-0.0289,-0.0251,-0.0293,-0.0289,-0.0281,-0.0199,-0.0183,-0.0176,-0.0124,-0.0137,-0.0134,-0.0132,-0.013,-0.0046,-0.0046,0,0,0,0,0,0,-0.0431,-0.0415,-0.0367,-0.0362,-0.0386,-0.033,-0.0322,-0.0317,-0.0252,-0.0242,-0.0281,-0.0279,-0.0189,-0.018,-0.0172,-0.0149,-0.0133,-0.013,-0.0128,-0.0046,-0.0046,-0.0046,0,0,0,0,0,0,-0.0433,-0.0428,-0.0371,-0.0387,-0.0378,-0.033,-0.0325,-0.0316,-0.03,-0.0244,-0.0233,-0.0274,-0.0189,-0.0177,-0.0142,-0.0144,-0.0128,-0.0125,-0.0046,-0.0046,-0.0046,-0.0104,0,0,0,0,0,0,-0.0435,-0.0429,-0.0432,-0.0388,-0.0377,-0.0354,-0.0325,-0.0315,-0.0296,-0.0292,-0.0234,-0.0224,-0.0187,-0.0148,-0.0138,-0.0139,-0.0122,-0.0046,-0.0046,-0.0046,-0.0102,-0.0106,-0.0109,0,0,0,0,0,-0.0437,-0.0445,-0.0433,-0.0427,-0.0383,-0.0354,-0.0346,-0.031,-0.0296,-0.0293,-0.0252,-0.0226,-0.0141,-0.0145,-0.0133,-0.0133,-0.0046,-0.0046,-0.0046,-0.01,-0.0105,-0.0109,0,0,0,0,0,0,-0.0474,-0.0439,-0.0425,-0.0422,-0.0393,-0.0345,-0.034,-0.0316,-0.0281,-0.0277,-0.0224,-0.0211,-0.0181,-0.015,-0.0155,-0.0109,-0.0089,-0.0087,-0.0135,-0.0139,-0.0142,-0.016,-0.0119,0,0,0,0,0,-0.0485,-0.0482,-0.0442,-0.0441,-0.043,-0.0387,-0.0372,-0.0348,-0.031,-0.0295,-0.0253,-0.021,-0.0173,-0.0151,-0.0114,-0.0089,-0.0054,-0.0081,-0.0085,-0.0088,-0.0094,-0.0041,-0.0041,-0.0046,-0.0046,-0.0046,0,0,-0.0499,-0.048,-0.0478,-0.0449,-0.0425,-0.0416,-0.0377,-0.0359,-0.0349,-0.0289,-0.0264,-0.0222,-0.0169,-0.014,-0.0124,-0.0113,-0.0069,-0.0088,-0.0092,-0.0096,-0.0041,-0.0041,-0.004,-0.0046,-0.0046,-0.0046,0,0,-0.053,-0.051,-0.052,-0.05,-0.047,-0.0441,-0.044,-0.0395,-0.0372,-0.0343,-0.0297,-0.0257,-0.0203,-0.0162,-0.0135,-0.0137,-0.0092,-0.0127,-0.0156,-0.0105,-0.0104,-0.0103,-0.0062,-0.0057,-0.0127,-0.0127,-0.0127,0,-0.055,-0.0555,-0.0518,-0.0521,-0.0512,-0.0458,-0.0466,-0.0433,-0.0382,-0.0363,-0.0345,-0.0257,-0.0213,-0.0169,-0.017,-0.0145,-0.0113,-0.0146,-0.011,-0.0108,-0.0106,-0.0064,-0.0058,-0.013,-0.0129,-0.0129,-0.0129,0,-0.0586,-0.059,-0.0594,-0.0581,-0.0564,-0.0562,-0.0515,-0.0492,-0.0458,-0.0421,-0.0372,-0.0306,-0.0253,-0.0232,-0.0202,-0.0165,-0.0147,-0.0124,-0.0102,-0.0109,-0.0064,-0.0057,-0.0134,-0.0133,-0.0132,-0.0131,0,0,-0.0632,-0.0624,-0.0625,-0.0634,-0.0598,-0.059,-0.0569,-0.0534,-0.0519,-0.046,-0.0433,-0.0363,-0.0322,-0.0289,-0.0237,-0.0192,-0.0149,-0.0159,-0.0155,-0.0126,-0.0043,0.001,0.0024,-0.012,-0.0119,-0.0118,-0.0019,0,-0.0673,-0.0704,-0.068,-0.0702,-0.0714,-0.0661,-0.0647,-0.0605,-0.0555,-0.0513,-0.0433,-0.0388,-0.0343,-0.0316,-0.0265,-0.0175,-0.0131,-0.0179,-0.0035,-0.0031,0.0012,0.0035,0.0065,0.016,-0.0011,-0.001,-0.0009,0,-0.0716,-0.0733,-0.0768,-0.0769,-0.0767,-0.0766,-0.0732,-0.0711,-0.0633,-0.0592,-0.0525,-0.0456,-0.0375,-0.0339,-0.0194,-0.0227,-0.0147,-0.0079,-0.0073,0.0002,0.0037,0.0141,0.0181,0.0329,0.0003,0.0002,0.0001,0,-0.0775,-0.0792,-0.0826,-0.0826,-0.0815,-0.0815,-0.0801,-0.0739,-0.0722,-0.0637,-0.0608,-0.05,-0.0439,-0.0325,-0.0175,-0.0186,-0.0013,-0.0006,0.0116,0.0121,0.0188,0.0197,0.0384,0.0088,0.0088,0.0088,0.0087,0,-0.083,-0.0855,-0.0858,-0.0879,-0.0914,-0.0877,-0.0887,-0.085,-0.0795,-0.0774,-0.0656,-0.0605,-0.0433,-0.0306,-0.0184,0.0002,-0.0013,0.0117,0.0156,0.0169,0.0175,0.034,0.039,0.0091,0.0091,0.009,0.0089,0,-0.0886,-0.0888,-0.0931,-0.094,-0.0945,-0.0969,-0.0959,-0.0959,-0.0893,-0.0858,-0.0834,-0.0679,-0.0504,-0.0321,-0.0119,-0.0003,0.0258,0.0227,0.0229,0.0266,0.0506,0.0549,0.0759,0.083,0.0371,0.0373,0.0374,0,-0.0917,-0.0946,-0.0987,-0.1019,-0.1027,-0.105,-0.1064,-0.1018,-0.1009,-0.09,-0.0886,-0.0707,-0.0564,-0.0232,0.0009,0.0253,0.0352,0.0415,0.0403,0.0537,0.0614,0.0641,0.0687,0.0467,0.0469,0.0471,0.0473,0,-0.0975,-0.0988,-0.1025,-0.1097,-0.1131,-0.1162,-0.1173,-0.1183,-0.1115,-0.1057,-0.0945,-0.0818,-0.0476,-0.0163,0.017,0.0315,0.0526,0.0461,0.061,0.0717,0.0751,0.0831,0.0374,0.049,0.0488,0.0487,0.0486,0.0485,-0.1009,-0.1055,-0.1106,-0.1169,-0.1214,-0.1256,-0.1277,-0.1263,-0.1235,-0.1131,-0.1003,-0.0778,-0.0318,0.0169,0.0344,0.0729,0.0679,0.0833,0.0876,0.0894,0.0965,0.0541,0.0695,0.0694,0.0694,0.0693,0.0693,0,-0.1049,-0.1101,-0.1173,-0.1245,-0.1303,-0.1305,-0.1333,-0.1326,-0.1285,-0.1148,-0.1004,-0.0502,-0.0041,0.038,0.0926,0.1132,0.116,0.1233,0.1281,0.1307,0.0953,0.0961,0.1168,0.1168,0.1168,0.1168,0.1168,0.1168,-0.1072,-0.115,-0.1191,-0.1296,-0.1345,-0.139,-0.1401,-0.1369,-0.1277,-0.103,-0.0751,-0.0534,0.0103,0.0987,0.1487,0.1529,0.1676,0.1672,0.1747,0.1507,0.1473,0.144,0.1463,0.1772,0.1772,0.2084,0.2087,0.2089]}],[{"header":{"parameterUnit":"m.s-1","parameterCategory":2,"la1":30.2991,"la2":30.254,"lo1":-89.0895,"lo2":-89.0444,"dy":0.0017,"dx":0.0017,"nx":28,"ny":28,"refTime":"2024-10-07T09:00:00:Z","depth":"2","parameterNumber":2,"parameterNumberName":"U-component_of_CURRENTS"},"data":[0,0,0,0,0,0,0,0,0,0,0,0,0,0,0,0,0,0,0,0,0,0,0,0,0,0,0,0,0,0,0,0,0,0,0,0,0,0,0,0,0,0,0,0,0,0,0,0,0,0,0,0,0,0,0,0,0,0,-0.2376,-0.2376,0,-0.2391,-0.2391,-0.2391,-0.2355,-0.2354,-0.2353,-0.2352,-0.2319,-0.2319,-0.2319,0,0,0,0,0,0,0,0,0,0,0,0,0,-0.2314,-0.2315,-0.2376,-0.2376,-0.2377,-0.2391,-0.2391,-0.2391,-0.2355,-0.2354,-0.2353,-0.2352,-0.2319,-0.2319,-0.2319,0,0,0,0,0,0,0,0,0,0,0,0,0,-0.2334,-0.2315,-0.2376,-0.2362,-0.2361,-0.2391,-0.2391,-0.2391,-0.2355,-0.2354,-0.2353,-0.2351,-0.2319,-0.2319,-0.2319,-0.2348,0,0,-0.232,-0.232,0,0,0,0,0,0,0,0,-0.2333,-0.2336,-0.2364,-0.2363,-0.2362,-0.2372,-0.2357,-0.2375,-0.2356,-0.2355,-0.2352,-0.2351,-0.2335,-0.2334,-0.2337,-0.2346,-0.2345,-0.232,-0.232,-0.232,-0.232,0,0,0,0,0,0,0,-0.2331,-0.2335,-0.238,-0.2365,-0.2364,-0.2355,-0.2356,-0.236,-0.235,-0.2355,-0.2353,-0.2359,-0.2334,-0.2337,-0.2336,-0.2344,-0.232,-0.232,-0.232,-0.232,-0.2364,-0.2366,0,0,0,0,0,0,-0.2336,-0.2334,-0.2379,-0.238,-0.2346,-0.2357,-0.2358,-0.2368,-0.2351,-0.2348,-0.236,-0.2357,-0.2338,-0.2336,-0.2335,-0.236,-0.232,-0.232,-0.232,-0.2363,-0.2365,-0.2366,0,0,0,0,0,0,-0.2335,-0.234,-0.2379,-0.2359,-0.2363,-0.236,-0.2371,-0.2369,-0.237,-0.2356,-0.2351,-0.2362,-0.2337,-0.2335,-0.234,-0.2358,-0.232,-0.232,-0.2362,-0.2364,-0.2365,-0.2415,0,0,0,0,0,0,-0.2333,-0.234,-0.2347,-0.2359,-0.2365,-0.24,-0.2373,-0.2371,-0.2377,-0.2373,-0.2357,-0.2352,-0.2335,-0.234,-0.234,-0.2358,-0.232,-0.236,-0.2363,-0.2365,-0.2412,-0.2418,-0.2423,0,0,0,0,0,-0.2331,-0.2348,-0.2347,-0.2353,-0.2375,-0.2401,-0.2403,-0.2394,-0.2379,-0.2387,-0.2374,-0.2353,-0.2354,-0.2342,-0.2341,-0.2359,-0.2359,-0.2362,-0.2365,-0.2409,-0.2417,-0.2423,0,0,0,0,0,0,-0.2325,-0.2347,-0.2346,-0.2368,-0.2386,-0.2396,-0.2403,-0.2401,-0.2399,-0.239,-0.2369,-0.2365,-0.2377,-0.2366,-0.2352,-0.2379,-0.2353,-0.2356,-0.2387,-0.2395,-0.24,-0.2398,-0.232,0,0,0,0,0,-0.233,-0.2343,-0.2367,-0.2382,-0.2394,-0.24,-0.2408,-0.2407,-0.241,-0.2407,-0.2397,-0.2389,-0.2391,-0.2389,-0.2389,-0.2407,-0.239,-0.2418,-0.2424,-0.2429,-0.2428,-0.2427,-0.2432,-0.2375,-0.2375,-0.2375,0,0,-0.233,-0.2344,-0.2351,-0.2381,-0.2391,-0.2416,-0.2401,-0.2419,-0.2435,-0.2405,-0.2417,-0.2411,-0.2401,-0.2418,-0.2422,-0.2407,-0.2438,-0.2432,-0.2437,-0.2433,-0.243,-0.2435,-0.244,-0.2377,-0.2376,-0.2376,0,0,-0.2341,-0.2354,-0.237,-0.2392,-0.2416,-0.2427,-0.2435,-0.2453,-0.2455,-0.2475,-0.2455,-0.2461,-0.2464,-0.2462,-0.2461,-0.2503,-0.247,-0.2503,-0.2529,-0.2528,-0.2532,-0.2536,-0.2523,-0.2525,-0.2504,-0.2504,-0.2504,0,-0.234,-0.2365,-0.238,-0.2406,-0.2423,-0.2434,-0.2459,-0.2474,-0.249,-0.2496,-0.2482,-0.2495,-0.2486,-0.2506,-0.2517,-0.2516,-0.2502,-0.2501,-0.2535,-0.2538,-0.2541,-0.2526,-0.2528,-0.2507,-0.2506,-0.2506,-0.2506,0,-0.2364,-0.2387,-0.2401,-0.2436,-0.246,-0.2483,-0.2512,-0.2531,-0.2534,-0.2543,-0.2563,-0.2557,-0.2558,-0.2564,-0.2551,-0.2573,-0.2553,-0.2543,-0.2514,-0.2549,-0.2532,-0.2533,-0.251,-0.2509,-0.2509,-0.2508,0,0,-0.2345,-0.2405,-0.2408,-0.2427,-0.2476,-0.2495,-0.2536,-0.257,-0.2588,-0.2603,-0.262,-0.2633,-0.2622,-0.2621,-0.261,-0.2611,-0.2621,-0.2585,-0.2584,-0.2567,-0.2608,-0.2557,-0.2552,-0.2614,-0.2615,-0.2615,-0.2588,0,-0.2354,-0.24,-0.2433,-0.2474,-0.2499,-0.2534,-0.2571,-0.2604,-0.2623,-0.2644,-0.2649,-0.2659,-0.2647,-0.2644,-0.2648,-0.2627,-0.2625,-0.2629,-0.258,-0.2579,-0.2525,-0.2552,-0.2351,-0.2306,-0.2588,-0.2588,-0.2588,0,-0.236,-0.239,-0.2431,-0.2489,-0.2504,-0.2533,-0.2582,-0.2616,-0.2659,-0.2674,-0.2692,-0.2691,-0.2702,-0.2681,-0.2669,-0.2669,-0.2643,-0.2626,-0.2624,-0.2557,-0.2529,-0.2317,-0.2296,-0.2589,-0.2589,-0.2589,-0.2589,0,-0.2319,-0.2386,-0.2412,-0.2433,-0.2505,-0.2527,-0.2562,-0.2615,-0.2643,-0.2684,-0.2702,-0.2717,-0.2717,-0.27,-0.2673,-0.2667,-0.265,-0.2636,-0.2567,-0.2562,-0.2371,-0.2349,-0.2625,-0.2625,-0.2625,-0.2625,-0.2626,0,-0.2306,-0.2324,-0.2394,-0.2405,-0.2436,-0.25,-0.2534,-0.2575,-0.2634,-0.2658,-0.2702,-0.2716,-0.2721,-0.2715,-0.2683,-0.2627,-0.2658,-0.2571,-0.2554,-0.2384,-0.2364,-0.2593,-0.259,-0.2624,-0.2625,-0.2625,-0.2625,0,-0.2243,-0.2294,-0.2323,-0.2394,-0.2414,-0.2429,-0.2506,-0.2531,-0.2602,-0.2635,-0.2648,-0.271,-0.2702,-0.2702,-0.2672,-0.2631,-0.2589,-0.2561,-0.2359,-0.2319,-0.2496,-0.2495,-0.2472,-0.247,-0.2469,-0.2467,-0.2466,0,-0.2211,-0.222,-0.2285,-0.2296,-0.2322,-0.2364,-0.2391,-0.2486,-0.2517,-0.2619,-0.2621,-0.2658,-0.2653,-0.2613,-0.2545,-0.2481,-0.2544,-0.2262,-0.222,-0.2495,-0.2481,-0.2484,-0.2486,-0.1981,-0.1976,-0.1972,-0.1969,0,-0.2135,-0.2158,-0.2178,-0.2201,-0.2227,-0.2261,-0.231,-0.2336,-0.2443,-0.2484,-0.2525,-0.2539,-0.2529,-0.2379,-0.2325,-0.2256,-0.2258,-0.2177,-0.2503,-0.2066,-0.2034,-0.202,-0.2038,-0.1932,-0.1935,-0.1938,-0.194,-0.1942,-0.2058,-0.2049,-0.2073,-0.208,-0.2111,-0.2122,-0.2108,-0.218,-0.2208,-0.2234,-0.2341,-0.2298,-0.228,-0.2098,-0.1993,-0.1907,-0.2063,-0.1946,-0.1958,-0.1974,-0.1937,-0.1905,-0.1771,-0.1773,-0.1776,-0.1778,-0.1779,0,-0.1941,-0.1942,-0.1949,-0.1951,-0.1926,-0.1988,-0.2017,-0.1975,-0.1956,-0.2022,-0.2031,-0.1834,-0.1752,-0.1745,-0.1569,-0.1538,-0.1505,-0.1456,-0.1404,-0.1442,-0.1475,-0.1412,-0.1107,-0.1105,-0.1103,-0.1101,0,0,-0.188,-0.1834,-0.1834,-0.1748,-0.175,-0.1671,-0.1655,-0.162,-0.1624,-0.1566,-0.1549,-0.1674,-0.1714,-0.1415,-0.1336,-0.12,-0.1306,-0.1134,-0.1674,-0.1652,-0.1683,-0.1758,-0.1704,0,0,0,0,0]},{"header":{"parameterUnit":"m.s-1","parameterCategory":2,"la1":30.2991,"la2":30.254,"lo1":-89.0895,"lo2":-89.0444,"dy":0.0017,"dx":0.0017,"nx":28,"ny":28,"refTime":"2024-10-07T09:00:00:Z","depth":"2","parameterNumber":3,"parameterNumberName":"V-component_of_CURRENTS"},"data":[0,0,0,0,0,0,0,0,0,0,0,0,0,0,0,0,0,0,0,0,0,0,0,0,0,0,0,0,0,0,0,0,0,0,0,0,0,0,0,0,0,0,0,0,0,0,0,0,0,0,0,0,0,0,0,0,0,0,-0.0283,-0.0283,0,-0.0206,-0.0205,-0.0204,-0.0154,-0.0154,-0.0154,-0.0154,-0.0054,-0.0052,-0.005,0,0,0,0,0,0,0,0,0,0,0,0,0,-0.0339,-0.0339,-0.0284,-0.0283,-0.0282,-0.0206,-0.0205,-0.0204,-0.0154,-0.0154,-0.0154,-0.0154,-0.0055,-0.0052,-0.0049,0,0,0,0,0,0,0,0,0,0,0,0,0,-0.0293,-0.0339,-0.0284,-0.0248,-0.0244,-0.0207,-0.0205,-0.0204,-0.0155,-0.0154,-0.0154,-0.0153,-0.0056,-0.0053,-0.0049,-0.0035,0,0,-0.0038,-0.0036,0,0,0,0,0,0,0,0,-0.0296,-0.0291,-0.0254,-0.0251,-0.0246,-0.019,-0.0189,-0.0146,-0.0155,-0.0188,-0.0154,-0.0153,-0.0098,-0.0091,-0.0077,-0.003,-0.0026,-0.0038,-0.0036,-0.0034,-0.0033,0,0,0,0,0,0,0,-0.0299,-0.0294,-0.0252,-0.0253,-0.0248,-0.022,-0.0213,-0.018,-0.0145,-0.0185,-0.0181,-0.0174,-0.0096,-0.0081,-0.0074,-0.0024,-0.0038,-0.0035,-0.0032,-0.0031,0.005,0.005,0,0,0,0,0,0,-0.0313,-0.0298,-0.0255,-0.025,-0.0271,-0.0219,-0.0212,-0.0208,-0.0146,-0.0137,-0.0174,-0.0172,-0.0087,-0.0079,-0.0071,-0.0048,-0.0034,-0.0031,-0.0029,0.005,0.005,0.005,0,0,0,0,0,0,-0.0315,-0.031,-0.0258,-0.0272,-0.0264,-0.0219,-0.0215,-0.0207,-0.0193,-0.0138,-0.0128,-0.0169,-0.0086,-0.0076,-0.0042,-0.0044,-0.0029,-0.0026,0.005,0.005,0.005,-0.0005,0,0,0,0,0,0,-0.0317,-0.0311,-0.0316,-0.0273,-0.0263,-0.0242,-0.0215,-0.0206,-0.0189,-0.0185,-0.013,-0.0121,-0.0085,-0.0048,-0.0038,-0.0039,-0.0023,0.005,0.005,0.005,-0.0003,-0.0006,-0.001,0,0,0,0,0,-0.0319,-0.0327,-0.0316,-0.0311,-0.027,-0.0243,-0.0235,-0.0201,-0.0189,-0.0186,-0.0147,-0.0122,-0.0041,-0.0045,-0.0034,-0.0033,0.005,0.005,0.005,-0.0001,-0.0006,-0.001,0,0,0,0,0,0,-0.0354,-0.0322,-0.0309,-0.0307,-0.028,-0.0235,-0.023,-0.0207,-0.0175,-0.0172,-0.0121,-0.0108,-0.008,-0.005,-0.0055,-0.001,0.0008,0.001,-0.0035,-0.0038,-0.0042,-0.0058,-0.002,0,0,0,0,0,-0.0365,-0.0364,-0.0326,-0.0326,-0.0315,-0.0275,-0.0261,-0.0239,-0.0203,-0.0189,-0.0149,-0.0108,-0.0072,-0.0051,-0.0016,0.0009,0.0043,0.0017,0.0013,0.001,0.0004,0.0057,0.0058,0.005,0.005,0.005,0,0,-0.0379,-0.0362,-0.0361,-0.0334,-0.0311,-0.0302,-0.0265,-0.025,-0.0239,-0.0183,-0.0159,-0.012,-0.0069,-0.004,-0.0025,-0.0014,0.0029,0.001,0.0007,0.0003,0.0057,0.0058,0.0059,0.005,0.005,0.005,0,0,-0.0409,-0.0392,-0.0401,-0.0383,-0.0355,-0.0327,-0.0327,-0.0284,-0.0262,-0.0235,-0.0191,-0.0153,-0.0102,-0.0061,-0.0034,-0.0036,0.0007,-0.0027,-0.0054,-0.0003,-0.0002,-0.0,0.0038,0.0044,-0.0026,-0.0027,-0.0027,0,-0.0429,-0.0434,-0.04,-0.0403,-0.0394,-0.0344,-0.0351,-0.0319,-0.0271,-0.0253,-0.0237,-0.0152,-0.011,-0.0065,-0.0067,-0.0043,-0.0013,-0.0044,-0.0008,-0.0005,-0.0003,0.0036,0.0043,-0.0029,-0.0029,-0.0029,-0.0028,0,-0.0463,-0.0467,-0.0472,-0.0459,-0.0443,-0.0442,-0.0396,-0.0375,-0.0344,-0.0307,-0.026,-0.0197,-0.0146,-0.0126,-0.0097,-0.006,-0.0044,-0.0021,-0.0,-0.0006,0.0036,0.0044,-0.0033,-0.0032,-0.0031,-0.0031,0,0,-0.0508,-0.05,-0.0502,-0.0509,-0.0475,-0.0468,-0.0447,-0.0412,-0.0398,-0.0342,-0.0315,-0.0248,-0.0209,-0.0177,-0.0128,-0.0084,-0.0041,-0.0053,-0.0049,-0.0021,0.0063,0.0109,0.0122,-0.0013,-0.0011,-0.001,0.0083,0,-0.0547,-0.0576,-0.0552,-0.0573,-0.0583,-0.0533,-0.0519,-0.0479,-0.0431,-0.039,-0.0313,-0.027,-0.0228,-0.0204,-0.0152,-0.0066,-0.0023,-0.007,0.0069,0.0073,0.0111,0.0132,0.0106,0.0191,0.0091,0.0093,0.0094,0,-0.0588,-0.0604,-0.0636,-0.0635,-0.0634,-0.0633,-0.06,-0.0579,-0.0502,-0.0465,-0.04,-0.0334,-0.0255,-0.0222,-0.0082,-0.0114,-0.0038,0.0028,0.0034,0.0101,0.0134,0.0183,0.0209,0.0107,0.0106,0.0105,0.0104,0,-0.0645,-0.0659,-0.0691,-0.0691,-0.0679,-0.068,-0.0666,-0.0606,-0.059,-0.0508,-0.0481,-0.0375,-0.0318,-0.0207,-0.0064,-0.0074,0.0092,0.0101,0.0214,0.0218,0.0236,0.024,0.0194,0.0194,0.0194,0.0193,0.0193,0,-0.0697,-0.072,-0.0723,-0.0743,-0.0776,-0.074,-0.075,-0.0715,-0.0661,-0.0641,-0.0527,-0.0478,-0.0312,-0.0191,-0.0072,0.0104,0.0093,0.0215,0.0252,0.0216,0.0217,0.0176,0.0172,0.0197,0.0196,0.0196,0.0195,0,-0.0751,-0.0752,-0.0793,-0.0801,-0.0807,-0.083,-0.0822,-0.0821,-0.0758,-0.0724,-0.0701,-0.0553,-0.0386,-0.021,-0.0014,0.0097,0.0257,0.0318,0.0262,0.0291,0.0344,0.0337,0.0448,0.045,0.0452,0.0454,0.0456,0,-0.0781,-0.0809,-0.0848,-0.088,-0.0889,-0.0912,-0.0925,-0.088,-0.0871,-0.0766,-0.0752,-0.0583,-0.0446,-0.0129,0.0096,0.0329,0.0318,0.0434,0.0417,0.0349,0.0373,0.0362,0.0352,0.0414,0.0415,0.0415,0.0416,0,-0.0837,-0.0851,-0.0886,-0.0957,-0.099,-0.102,-0.103,-0.104,-0.0973,-0.0918,-0.0811,-0.069,-0.0371,-0.0099,0.0214,0.0344,0.0397,0.046,0.0421,0.0355,0.0325,0.0346,0.0336,0.0424,0.0423,0.0422,0.0422,0.0422,-0.0871,-0.0916,-0.0966,-0.1028,-0.1071,-0.1112,-0.1132,-0.1115,-0.1088,-0.098,-0.0863,-0.0646,-0.0378,0.0079,0.0293,0.0494,0.0489,0.0536,0.0529,0.0523,0.0504,0.048,0.0603,0.0603,0.0603,0.0604,0.0604,0,-0.0911,-0.0962,-0.1032,-0.1102,-0.1155,-0.1161,-0.1186,-0.1168,-0.1126,-0.0991,-0.085,-0.0533,-0.0215,0.006,0.039,0.0584,0.0554,0.0606,0.0525,0.0518,0.0511,0.0487,0.0585,0.0585,0.0585,0.0585,0,0,-0.0933,-0.1008,-0.1047,-0.1147,-0.1197,-0.1239,-0.1249,-0.1197,-0.11,-0.0947,-0.0777,-0.0543,-0.0202,0.0024,0.0268,0.0435,0.0418,0.0445,0.0444,0.0313,0.0303,0.046,0.0415,0,0,0,0,0]}],[{"header":{"parameterUnit":"m.s-1","parameterCategory":2,"la1":30.2991,"la2":30.254,"lo1":-89.0895,"lo2":-89.0444,"dy":0.0017,"dx":0.0017,"nx":28,"ny":28,"refTime":"2024-10-07T09:00:00:Z","depth":"4","parameterNumber":2,"parameterNumberName":"U-component_of_CURRENTS"},"data":[0,0,0,0,0,0,0,0,0,0,0,0,0,0,0,0,0,0,0,0,0,0,0,0,0,0,0,0,0,0,0,0,0,0,0,0,0,0,0,0,0,0,0,0,0,0,0,0,0,0,0,0,0,0,0,0,0,0,-0.1673,-0.1674,0,-0.1731,-0.1732,-0.1732,-0.1763,-0.1763,-0.1763,-0.1763,-0.1813,-0.1814,-0.1815,0,0,0,0,0,0,0,0,0,0,0,0,0,-0.1587,-0.1589,-0.1673,-0.1674,-0.1675,-0.1731,-0.1732,-0.1733,-0.1763,-0.1763,-0.1763,-0.1764,-0.1812,-0.1814,-0.1815,0,0,0,0,0,0,0,0,0,0,0,0,0,-0.1631,-0.1589,-0.1673,-0.1698,-0.1701,-0.1731,-0.1732,-0.1733,-0.1763,-0.1763,-0.1763,-0.1764,-0.1812,-0.1813,-0.1815,-0.182,0,0,-0.182,-0.1821,0,0,0,0,0,0,0,0,-0.1629,-0.1634,-0.1693,-0.1696,-0.17,-0.1742,-0.172,-0.1762,-0.1763,-0.1738,-0.1763,-0.1764,-0.1789,-0.1792,-0.1801,-0.1822,-0.1824,-0.182,-0.1821,-0.1822,-0.1823,0,0,0,0,0,0,0,-0.1626,-0.1632,-0.1695,-0.1694,-0.1698,-0.1706,-0.1712,-0.1728,-0.1759,-0.174,-0.1743,-0.1752,-0.179,-0.1799,-0.1802,-0.1825,-0.182,-0.1822,-0.1823,-0.1824,-0.192,-0.1921,0,0,0,0,0,0,-0.1622,-0.1629,-0.1693,-0.1696,-0.1666,-0.1708,-0.1715,-0.1727,-0.176,-0.1765,-0.1751,-0.1753,-0.1796,-0.18,-0.1804,-0.1876,-0.1822,-0.1824,-0.1825,-0.1918,-0.192,-0.1922,0,0,0,0,0,0,-0.162,-0.1627,-0.169,-0.1665,-0.1674,-0.1709,-0.1722,-0.1728,-0.1763,-0.1769,-0.1774,-0.1784,-0.1796,-0.1801,-0.1843,-0.1876,-0.1824,-0.1826,-0.1917,-0.1919,-0.1921,-0.1979,0,0,0,0,0,0,-0.1617,-0.1626,-0.1647,-0.1665,-0.1675,-0.1727,-0.1722,-0.1729,-0.1767,-0.1771,-0.1798,-0.1802,-0.1797,-0.1841,-0.1845,-0.1877,-0.1827,-0.1915,-0.1918,-0.192,-0.1975,-0.1983,-0.1989,0,0,0,0,0,-0.1614,-0.1636,-0.1648,-0.1656,-0.1699,-0.1729,-0.1735,-0.1759,-0.1769,-0.1791,-0.1811,-0.1802,-0.1862,-0.1844,-0.1848,-0.1881,-0.1913,-0.1917,-0.192,-0.1971,-0.1981,-0.1989,0,0,0,0,0,0,-0.1612,-0.1642,-0.1655,-0.1687,-0.1716,-0.1735,-0.1762,-0.1776,-0.181,-0.1821,-0.1823,-0.1828,-0.1876,-0.1873,-0.1852,-0.1918,-0.1886,-0.1891,-0.1924,-0.1933,-0.194,-0.1932,-0.1829,0,0,0,0,0,-0.1621,-0.1646,-0.1674,-0.1703,-0.172,-0.1747,-0.1768,-0.1786,-0.1811,-0.1828,-0.1848,-0.1869,-0.1889,-0.1907,-0.1923,-0.1961,-0.1943,-0.1985,-0.1993,-0.1999,-0.1996,-0.1998,-0.2005,-0.1933,-0.1933,-0.1933,0,0,-0.1629,-0.1649,-0.1665,-0.1705,-0.173,-0.1762,-0.1761,-0.1803,-0.1835,-0.1827,-0.1887,-0.1899,-0.1905,-0.1947,-0.1968,-0.1952,-0.2011,-0.2003,-0.2008,-0.2002,-0.2003,-0.2009,-0.2015,-0.1936,-0.1935,-0.1935,0,0,-0.1646,-0.1677,-0.1702,-0.1731,-0.1775,-0.1792,-0.1811,-0.185,-0.1878,-0.1928,-0.193,-0.1963,-0.2002,-0.201,-0.2017,-0.2075,-0.2049,-0.2087,-0.212,-0.2123,-0.2128,-0.2133,-0.2121,-0.2124,-0.2091,-0.2092,-0.2092,0,-0.1658,-0.169,-0.1716,-0.1748,-0.1776,-0.1809,-0.1844,-0.1876,-0.1927,-0.1951,-0.1958,-0.2017,-0.2028,-0.2064,-0.2086,-0.2091,-0.2082,-0.2085,-0.2131,-0.2135,-0.2139,-0.2125,-0.2128,-0.2095,-0.2094,-0.2094,-0.2094,0,-0.1683,-0.1724,-0.1744,-0.1793,-0.1828,-0.1866,-0.1909,-0.1954,-0.1991,-0.2016,-0.2074,-0.209,-0.2119,-0.2135,-0.213,-0.2167,-0.2149,-0.2138,-0.2105,-0.2149,-0.2133,-0.2134,-0.2099,-0.2098,-0.2097,-0.2097,0,0,-0.1664,-0.1746,-0.1756,-0.1788,-0.1857,-0.1883,-0.1948,-0.2003,-0.2041,-0.2095,-0.2136,-0.2181,-0.2188,-0.2196,-0.2199,-0.2208,-0.223,-0.2189,-0.2188,-0.217,-0.2229,-0.2087,-0.2075,-0.2229,-0.2229,-0.223,-0.2207,0,-0.1678,-0.174,-0.1781,-0.1848,-0.1882,-0.1938,-0.1991,-0.2048,-0.2094,-0.2143,-0.2171,-0.2212,-0.2212,-0.223,-0.2241,-0.2232,-0.2237,-0.2237,-0.2194,-0.2193,-0.2055,-0.2072,-0.2232,-0.2208,-0.2208,-0.2209,-0.2209,0,-0.168,-0.1724,-0.179,-0.1873,-0.1895,-0.1944,-0.2026,-0.2077,-0.2148,-0.2184,-0.2228,-0.2247,-0.2279,-0.2268,-0.2275,-0.2276,-0.2259,-0.2247,-0.2245,-0.209,-0.2053,-0.2155,-0.2211,-0.2211,-0.221,-0.221,-0.221,0,-0.1632,-0.1726,-0.1779,-0.1809,-0.1908,-0.1956,-0.2011,-0.2091,-0.2132,-0.2208,-0.2238,-0.2279,-0.2298,-0.2294,-0.2279,-0.2281,-0.2267,-0.2262,-0.2119,-0.2109,-0.2218,-0.2213,-0.226,-0.226,-0.226,-0.226,-0.226,0,-0.1608,-0.1654,-0.1768,-0.1794,-0.1858,-0.194,-0.2008,-0.2067,-0.2147,-0.2179,-0.2252,-0.2265,-0.2307,-0.2305,-0.2285,-0.2195,-0.2272,-0.2115,-0.209,-0.2244,-0.2243,-0.2219,-0.2214,-0.2259,-0.226,-0.226,-0.226,0,-0.1536,-0.1616,-0.168,-0.1797,-0.1836,-0.188,-0.1995,-0.2032,-0.2126,-0.2168,-0.2192,-0.2261,-0.2249,-0.2267,-0.2252,-0.2181,-0.2124,-0.2077,-0.2235,-0.2221,-0.1964,-0.1963,-0.1903,-0.1897,-0.1893,-0.1889,-0.1886,0,-0.1499,-0.1528,-0.1659,-0.1695,-0.1752,-0.1836,-0.1883,-0.2,-0.2029,-0.2137,-0.2131,-0.2174,-0.2198,-0.2055,-0.2096,-0.2036,-0.2016,-0.1975,-0.1971,-0.1943,-0.1926,-0.1932,-0.1937,-0.1879,-0.1878,-0.1877,-0.1876,0,-0.1419,-0.1482,-0.1533,-0.1605,-0.167,-0.1727,-0.1803,-0.1811,-0.1927,-0.2039,-0.2008,-0.1991,-0.1974,-0.1948,-0.1915,-0.1878,-0.1993,-0.1928,-0.1937,-0.1933,-0.1914,-0.1902,-0.1913,-0.186,-0.1862,-0.1864,-0.1865,0,-0.1357,-0.137,-0.1443,-0.1488,-0.1563,-0.1577,-0.1644,-0.1671,-0.1716,-0.184,-0.1823,-0.1873,-0.1948,-0.1865,-0.1835,-0.1783,-0.1756,-0.1696,-0.1717,-0.1734,-0.1689,-0.1641,-0.147,0,0,0,0,0,-0.1279,-0.1276,-0.1315,-0.1357,-0.1425,-0.1462,-0.1563,-0.1633,-0.1751,-0.1679,-0.1745,-0.1721,-0.1676,-0.1704,-0.1612,-0.1756,-0.1764,-0.1642,-0.1707,-0.1774,-0.1792,-0.1753,0,0,0,0,0,0,-0.1227,-0.1258,-0.1266,-0.1227,-0.1229,-0.1284,-0.1341,-0.1432,-0.14,-0.1528,-0.1508,-0.1608,-0.1585,-0.1694,-0.1571,-0.1579,-0.1582,-0.1685,-0.168,-0.1764,-0.178,-0.1795,-0.1761,0,0,0,0,0]},{"header":{"parameterUnit":"m.s-1","parameterCategory":2,"la1":30.2991,"la2":30.254,"lo1":-89.0895,"lo2":-89.0444,"dy":0.0017,"dx":0.0017,"nx":28,"ny":28,"refTime":"2024-10-07T09:00:00:Z","depth":"4","parameterNumber":3,"parameterNumberName":"V-component_of_CURRENTS"},"data":[0,0,0,0,0,0,0,0,0,0,0,0,0,0,0,0,0,0,0,0,0,0,0,0,0,0,0,0,0,0,0,0,0,0,0,0,0,0,0,0,0,0,0,0,0,0,0,0,0,0,0,0,0,0,0,0,0,0,-0.0146,-0.0146,0,-0.0097,-0.0097,-0.0096,-0.0062,-0.0062,-0.0062,-0.0062,0.0013,0.0015,0.0016,0,0,0,0,0,0,0,0,0,0,0,0,0,-0.0171,-0.0171,-0.0146,-0.0145,-0.0145,-0.0098,-0.0097,-0.0096,-0.0062,-0.0062,-0.0062,-0.0062,0.0012,0.0014,0.0017,0,0,0,0,0,0,0,0,0,0,0,0,0,-0.0145,-0.0171,-0.0146,-0.0123,-0.012,-0.0098,-0.0097,-0.0096,-0.0062,-0.0062,-0.0062,-0.0061,0.0012,0.0014,0.0017,0.0027,0,0,0.0025,0.0026,0,0,0,0,0,0,0,0,-0.0146,-0.0144,-0.0127,-0.0124,-0.0122,-0.0086,-0.0078,-0.0054,-0.0062,-0.0084,-0.0062,-0.0061,-0.0018,-0.0013,-0.0004,0.0031,0.0034,0.0025,0.0027,0.0028,0.0029,0,0,0,0,0,0,0,-0.0148,-0.0145,-0.0126,-0.0126,-0.0123,-0.0102,-0.0098,-0.0073,-0.0052,-0.0082,-0.0079,-0.0075,-0.0017,-0.0007,-0.0002,0.0035,0.0025,0.0028,0.0029,0.003,0.0091,0.0091,0,0,0,0,0,0,-0.0158,-0.0147,-0.0128,-0.0125,-0.0134,-0.0102,-0.0097,-0.0097,-0.0053,-0.0047,-0.0075,-0.0074,-0.0012,-0.0005,0.0001,0.0018,0.0028,0.0031,0.0032,0.0091,0.0091,0.0091,0,0,0,0,0,0,-0.0158,-0.0157,-0.013,-0.0135,-0.013,-0.0102,-0.0102,-0.0097,-0.0089,-0.0049,-0.0041,-0.0074,-0.0011,-0.0003,0.0021,0.0021,0.0032,0.0034,0.0091,0.0091,0.0091,0.0051,0,0,0,0,0,0,-0.0159,-0.0157,-0.0163,-0.0136,-0.013,-0.0122,-0.0102,-0.0096,-0.0087,-0.0084,-0.0045,-0.0037,-0.001,0.0017,0.0024,0.0025,0.0036,0.0091,0.0091,0.0091,0.0052,0.0049,0.0047,0,0,0,0,0,-0.0161,-0.017,-0.0164,-0.0161,-0.0139,-0.0123,-0.0118,-0.0096,-0.0087,-0.0087,-0.0058,-0.0039,0.0022,0.0019,0.0027,0.0029,0.0091,0.0091,0.0091,0.0053,0.005,0.0047,0,0,0,0,0,0,-0.0184,-0.0167,-0.0159,-0.0164,-0.0147,-0.0117,-0.0117,-0.0101,-0.0079,-0.0077,-0.0038,-0.0029,-0.0008,0.0015,0.0011,0.0046,0.0059,0.0061,0.0028,0.0025,0.0023,0.001,0.0039,0,0,0,0,0,-0.0193,-0.0197,-0.0174,-0.0179,-0.0173,-0.0146,-0.0138,-0.0124,-0.01,-0.009,-0.0061,-0.003,-0.0002,0.0014,0.004,0.0059,0.0088,0.0066,0.0063,0.0061,0.0056,0.0104,0.0106,0.0091,0.0091,0.0091,0,0,-0.0204,-0.0195,-0.0198,-0.0184,-0.017,-0.0167,-0.0141,-0.0134,-0.0128,-0.0085,-0.007,-0.004,0.0,0.0022,0.0034,0.0042,0.0079,0.0061,0.0059,0.0055,0.0104,0.0106,0.0107,0.0091,0.0091,0.0091,0,0,-0.0227,-0.022,-0.0231,-0.0221,-0.0206,-0.0187,-0.0188,-0.0161,-0.0146,-0.0129,-0.0095,-0.0064,-0.0027,0.0007,0.0028,0.0027,0.0062,0.0033,0.0013,0.006,0.0061,0.0063,0.0095,0.01,0.0034,0.0034,0.0034,0,-0.0241,-0.025,-0.0231,-0.0236,-0.0232,-0.02,-0.0208,-0.0187,-0.0155,-0.0141,-0.0132,-0.0066,-0.0033,0.0006,0.0004,0.0022,0.0047,0.0021,0.0056,0.0059,0.0061,0.0094,0.01,0.0032,0.0032,0.0033,0.0033,0,-0.0268,-0.0276,-0.0282,-0.0278,-0.0271,-0.0273,-0.0243,-0.023,-0.021,-0.0184,-0.0148,-0.0099,-0.0059,-0.0042,-0.002,0.0015,0.0026,0.0045,0.0062,0.006,0.0095,0.0102,0.0029,0.003,0.0031,0.0031,0,0,-0.0297,-0.0301,-0.0304,-0.0313,-0.0295,-0.0293,-0.0281,-0.0258,-0.0249,-0.0209,-0.0189,-0.0135,-0.0106,-0.008,-0.004,-0.0,0.0039,0.0023,0.0026,0.0051,0.0131,0.0128,0.0136,0.0065,0.0066,0.0067,0.0146,0,-0.0325,-0.0353,-0.0341,-0.0362,-0.0373,-0.0342,-0.0335,-0.0309,-0.0276,-0.0246,-0.0184,-0.0153,-0.0119,-0.0101,-0.0054,0.0017,0.0056,0.0015,0.0132,0.0136,0.0131,0.0143,0.007,0.0151,0.0153,0.0154,0.0155,0,-0.0351,-0.0369,-0.04,-0.0409,-0.0411,-0.0417,-0.04,-0.0388,-0.0332,-0.0305,-0.0254,-0.0203,-0.0136,-0.011,0.0011,-0.0018,0.0047,0.0102,0.0108,0.0123,0.0146,0.0156,0.0168,0.0167,0.0166,0.0165,0.0164,0,-0.0384,-0.0407,-0.0438,-0.0441,-0.0444,-0.0452,-0.045,-0.0411,-0.0402,-0.0341,-0.0323,-0.0233,-0.0191,-0.0092,0.0024,0.0018,0.0157,0.0169,0.0228,0.0229,0.0225,0.0222,0.0251,0.0251,0.0251,0.0251,0.0251,0,-0.0413,-0.0438,-0.0462,-0.048,-0.0517,-0.0499,-0.0517,-0.0495,-0.0461,-0.0448,-0.036,-0.0322,-0.0185,-0.0086,0.0018,0.0145,0.0158,0.0225,0.0252,0.0205,0.02,0.023,0.0226,0.0254,0.0253,0.0253,0.0252,0,-0.0438,-0.0454,-0.0496,-0.0522,-0.0536,-0.0562,-0.0578,-0.0582,-0.0542,-0.0518,-0.0502,-0.0389,-0.0257,-0.0113,0.0053,0.0129,0.0258,0.0299,0.0232,0.0253,0.0297,0.029,0.0368,0.0368,0.0369,0.0369,0.037,0,-0.0451,-0.0477,-0.0537,-0.0573,-0.0592,-0.0627,-0.0649,-0.0629,-0.0626,-0.0553,-0.054,-0.0416,-0.0324,-0.0087,0.0058,0.0259,0.0284,0.0341,0.0322,0.0292,0.031,0.0303,0.0296,0.037,0.0371,0.0371,0.0371,0,-0.0474,-0.0502,-0.0539,-0.0618,-0.0663,-0.0701,-0.0726,-0.0731,-0.0691,-0.066,-0.0556,-0.0421,-0.0272,-0.0089,0.0068,0.0211,0.03,0.0347,0.0346,0.0329,0.0296,0.0312,0.0305,0.0373,0.0372,0.0372,0.0372,0,-0.049,-0.0527,-0.0585,-0.0648,-0.0711,-0.075,-0.0762,-0.0741,-0.0727,-0.064,-0.0607,-0.0428,-0.0327,-0.0112,0.0036,0.0175,0.0203,0.0236,0.0242,0.0241,0.0181,0.0119,0.0167,0,0,0,0,0,-0.0497,-0.0541,-0.0609,-0.0676,-0.0739,-0.077,-0.0798,-0.0794,-0.076,-0.0692,-0.0645,-0.0496,-0.026,-0.0154,-0.0015,0.0029,0.0212,0.0193,0.0249,0.0383,0.0381,0.0331,0,0,0,0,0,0,-0.0504,-0.0569,-0.0606,-0.0681,-0.0728,-0.0786,-0.0805,-0.0786,-0.0737,-0.0684,-0.0556,-0.0472,-0.0244,-0.0335,-0.0013,0.0029,0.008,0.031,0.0312,0.0384,0.0382,0.038,0.0328,0,0,0,0,0]}]]